CSN1017 ZGGG-ZYCC

Flight info

Callsign CSN1017
Flight time 3h 32m
Altitude 35100
Route MIKIP A461 LIG W521 POXIB W56 VYK G212 TGO G341 BUTET
Aircraft B772/H-SDE2E3FGHIJ5LORVWXY/LB1D1

Departure

Time 2026-04-28 11:33
Airport Guangzhou Baiyun International Airport (ZGGG)

Arrival

Time 2026-04-28 15:05
Airport Changchun Longjia International Airport (ZYCC)
Time Latitude Longitude Altitude Speed Heading
2026-04-28 11:29 23.38145 113.30486 58 ft 40 kts 192°
2026-04-28 11:30 23.37873 113.30424 58 ft 39 kts 198°
2026-04-28 11:30 23.37679 113.30366 58 ft 16 kts 182°
2026-04-28 11:30 23.37611 113.30403 58 ft 4 kts 115°
2026-04-28 11:31 23.37596 113.30441 58 ft 6 kts 112°
2026-04-28 11:31 23.37582 113.30483 58 ft 7 kts 110°
2026-04-28 11:31 23.37582 113.30529 58 ft 5 kts 40°
2026-04-28 11:31 23.37616 113.30542 58 ft 6 kts 15°
2026-04-28 11:32 23.37640 113.30549 58 ft 0 kts 14°
2026-04-28 11:32 23.37714 113.30571 58 ft 43 kts 15°
2026-04-28 11:32 23.38299 113.30733 58 ft 129 kts 13°
2026-04-28 11:32 23.39187 113.30990 284 ft 171 kts 16°
2026-04-28 11:33 23.41950 113.31692 1688 ft 226 kts 15°
2026-04-28 11:33 23.43435 113.32163 2192 ft 228 kts 16°
2026-04-28 11:33 23.44939 113.32631 2673 ft 232 kts 15°
2026-04-28 11:34 23.46485 113.33096 3142 ft 235 kts 15°
2026-04-28 11:34 23.48064 113.33566 3621 ft 249 kts 15°
2026-04-28 11:34 23.49749 113.34068 4117 ft 257 kts 15°
2026-04-28 11:34 23.51487 113.34586 4606 ft 261 kts 15°
2026-04-28 11:35 23.53247 113.35110 5090 ft 263 kts 15°
2026-04-28 11:35 23.55007 113.35634 5568 ft 264 kts 14°
2026-04-28 11:35 23.56792 113.36054 6042 ft 266 kts 10°
2026-04-28 11:35 23.58626 113.36403 6522 ft 268 kts
2026-04-28 11:36 23.60470 113.36750 7002 ft 270 kts
2026-04-28 11:36 23.62299 113.37098 7474 ft 272 kts
2026-04-28 11:36 23.64191 113.37459 8119 ft 277 kts
2026-04-28 11:36 23.66057 113.37815 8885 ft 278 kts
2026-04-28 11:37 23.67962 113.38179 9344 ft 280 kts
2026-04-28 11:37 23.69893 113.38548 9775 ft 282 kts
2026-04-28 11:37 23.71804 113.38913 10198 ft 283 kts
2026-04-28 11:37 23.73743 113.39284 10624 ft 285 kts
2026-04-28 11:38 23.75708 113.39660 11052 ft 287 kts
2026-04-28 11:38 23.77668 113.40035 11476 ft 289 kts
2026-04-28 11:38 23.79653 113.40415 11903 ft 291 kts
2026-04-28 11:38 23.81668 113.40801 12333 ft 293 kts
2026-04-28 11:39 23.83672 113.41184 12760 ft 295 kts
2026-04-28 11:39 23.85688 113.41570 13185 ft 297 kts
2026-04-28 11:39 23.87706 113.41957 13607 ft 299 kts
2026-04-28 11:39 23.89752 113.42349 14032 ft 301 kts
2026-04-28 11:40 23.91818 113.42745 14460 ft 302 kts
2026-04-28 11:40 23.93875 113.43140 14883 ft 304 kts
2026-04-28 11:40 23.95973 113.43542 15312 ft 306 kts
2026-04-28 11:40 23.98061 113.43942 15735 ft 308 kts
2026-04-28 11:41 24.00198 113.44353 16166 ft 311 kts
2026-04-28 11:41 24.02313 113.44759 16589 ft 313 kts
2026-04-28 11:41 24.04445 113.45168 17014 ft 315 kts
2026-04-28 11:41 24.06616 113.45506 17440 ft 317 kts
2026-04-28 11:42 24.08813 113.45526 17855 ft 318 kts 356°
2026-04-28 11:42 24.11009 113.45264 18279 ft 320 kts 353°
2026-04-28 11:42 24.13237 113.44955 18714 ft 323 kts 353°
2026-04-28 11:42 24.15437 113.44653 19138 ft 325 kts 353°
2026-04-28 11:43 24.17696 113.44347 19570 ft 327 kts 353°
2026-04-28 11:43 24.19946 113.44043 19998 ft 330 kts 353°
2026-04-28 11:43 24.22220 113.43737 20427 ft 332 kts 353°
2026-04-28 11:43 24.24523 113.43426 20859 ft 333 kts 353°
2026-04-28 11:44 24.26813 113.43117 21287 ft 335 kts 353°
2026-04-28 11:44 24.29124 113.42806 21714 ft 338 kts 353°
2026-04-28 11:44 24.31447 113.42493 22142 ft 341 kts 353°
2026-04-28 11:44 24.33831 113.42172 22576 ft 346 kts 354°
2026-04-28 11:45 24.36229 113.42056 23008 ft 352 kts
2026-04-28 11:45 24.38700 113.42119 23446 ft 357 kts
2026-04-28 11:45 24.41178 113.42190 23877 ft 363 kts
2026-04-28 11:45 24.43690 113.42261 24307 ft 368 kts
2026-04-28 11:46 24.46270 113.42333 24731 ft 373 kts
2026-04-28 11:46 24.48871 113.42409 25162 ft 377 kts
2026-04-28 11:46 24.51515 113.42485 25595 ft 381 kts
2026-04-28 11:46 24.54154 113.42561 26023 ft 385 kts
2026-04-28 11:47 24.56808 113.42636 26448 ft 389 kts
2026-04-28 11:47 24.59533 113.42714 26881 ft 392 kts
2026-04-28 11:47 24.62266 113.42792 27312 ft 395 kts
2026-04-28 11:47 24.64988 113.42869 27737 ft 398 kts
2026-04-28 11:48 24.67772 113.42948 28168 ft 400 kts
2026-04-28 11:48 24.70550 113.43027 28596 ft 402 kts
2026-04-28 11:48 24.73322 113.43106 29020 ft 404 kts
2026-04-28 11:48 24.76116 113.43185 29445 ft 406 kts
2026-04-28 11:49 24.78940 113.43265 29874 ft 407 kts
2026-04-28 11:49 24.81795 113.43346 30304 ft 409 kts
2026-04-28 11:49 24.84617 113.43427 30729 ft 410 kts
2026-04-28 11:49 24.87437 113.43507 31151 ft 411 kts
2026-04-28 11:50 24.90324 113.43590 31582 ft 413 kts
2026-04-28 11:50 24.93181 113.43671 32007 ft 414 kts
2026-04-28 11:50 24.96014 113.43752 32427 ft 415 kts
2026-04-28 11:50 24.98912 113.43835 32857 ft 415 kts
2026-04-28 11:51 25.01771 113.43916 33279 ft 416 kts
2026-04-28 11:51 25.04660 113.43999 33705 ft 416 kts
2026-04-28 11:51 25.07554 113.44081 34130 ft 416 kts
2026-04-28 11:51 25.10432 113.44164 34553 ft 416 kts
2026-04-28 11:52 25.13295 113.44245 34975 ft 416 kts
2026-04-28 11:52 25.16166 113.44327 35164 ft 420 kts
2026-04-28 11:52 25.22107 113.44498 35179 ft 436 kts
2026-04-28 11:53 25.28242 113.44673 35179 ft 451 kts
2026-04-28 11:53 25.34612 113.44856 35179 ft 465 kts
2026-04-28 11:54 25.41115 113.45042 35178 ft 478 kts
2026-04-28 11:54 25.47860 113.45236 35178 ft 490 kts
2026-04-28 11:55 25.54712 113.45434 35177 ft 499 kts
2026-04-28 11:55 25.61661 113.45634 35177 ft 505 kts
2026-04-28 11:56 25.68643 113.45835 35176 ft 507 kts
2026-04-28 11:56 25.75686 113.46039 35176 ft 506 kts
2026-04-28 11:57 25.82689 113.46241 35176 ft 506 kts
2026-04-28 11:57 25.89710 113.46448 35176 ft 506 kts
2026-04-28 11:58 25.96739 113.46667 35176 ft 506 kts
2026-04-28 11:58 26.03714 113.46884 35176 ft 506 kts
2026-04-28 11:59 26.10760 113.47104 35176 ft 506 kts
2026-04-28 11:59 26.17762 113.47322 35176 ft 506 kts
2026-04-28 12:00 26.24794 113.47541 35176 ft 506 kts
2026-04-28 12:00 26.31800 113.47760 35176 ft 506 kts
2026-04-28 12:01 26.38808 113.47979 35176 ft 506 kts
2026-04-28 12:01 26.45811 113.48198 35176 ft 506 kts
2026-04-28 12:02 26.52836 113.48418 35176 ft 506 kts
2026-04-28 12:02 26.59821 113.48637 35176 ft 506 kts
2026-04-28 12:03 26.66874 113.48859 35176 ft 506 kts
2026-04-28 12:03 26.73891 113.49079 35176 ft 506 kts
2026-04-28 12:04 26.80872 113.49299 35176 ft 506 kts
2026-04-28 12:04 26.87876 113.49520 35176 ft 506 kts
2026-04-28 12:05 26.94891 113.49741 35176 ft 506 kts
2026-04-28 12:05 27.01918 113.49970 35174 ft 506 kts
2026-04-28 12:06 27.08934 113.50192 35176 ft 506 kts
2026-04-28 12:06 27.15932 113.50411 35176 ft 506 kts
2026-04-28 12:07 27.22946 113.50632 35176 ft 506 kts
2026-04-28 12:07 27.29979 113.50826 35176 ft 506 kts
2026-04-28 12:08 27.37007 113.50993 35176 ft 506 kts
2026-04-28 12:08 27.43984 113.51160 35176 ft 506 kts
2026-04-28 12:09 27.51014 113.51331 35176 ft 506 kts
2026-04-28 12:09 27.58034 113.51502 35176 ft 506 kts
2026-04-28 12:10 27.65052 113.51355 35171 ft 507 kts 352°
2026-04-28 12:10 27.71891 113.49591 35176 ft 507 kts 345°
2026-04-28 12:11 27.78654 113.47590 35176 ft 506 kts 345°
2026-04-28 12:11 27.85463 113.45572 35176 ft 506 kts 345°
2026-04-28 12:12 27.92337 113.44068 35176 ft 507 kts 356°
2026-04-28 12:12 27.99351 113.44383 35177 ft 507 kts
2026-04-28 12:13 28.06362 113.44997 35176 ft 506 kts
2026-04-28 12:13 28.13334 113.45564 35176 ft 506 kts
2026-04-28 12:14 28.20347 113.46055 35176 ft 506 kts
2026-04-28 12:14 28.27348 113.46551 35176 ft 506 kts
2026-04-28 12:15 28.34368 113.47054 35176 ft 506 kts
2026-04-28 12:15 28.41353 113.47555 35176 ft 506 kts
2026-04-28 12:16 28.48372 113.48055 35176 ft 506 kts
2026-04-28 12:16 28.55355 113.48553 35176 ft 506 kts
2026-04-28 12:17 28.62345 113.49053 35176 ft 506 kts
2026-04-28 12:17 28.69396 113.49558 35176 ft 506 kts
2026-04-28 12:18 28.76382 113.50059 35176 ft 506 kts
2026-04-28 12:18 28.83376 113.50561 35176 ft 506 kts
2026-04-28 12:19 28.90398 113.51066 35176 ft 506 kts
2026-04-28 12:19 28.97393 113.51569 35176 ft 506 kts
2026-04-28 12:20 29.04398 113.52074 35176 ft 506 kts
2026-04-28 12:20 29.11398 113.52579 35176 ft 506 kts
2026-04-28 12:21 29.18414 113.53085 35176 ft 506 kts
2026-04-28 12:21 29.25406 113.53591 35176 ft 506 kts
2026-04-28 12:22 29.32381 113.54134 35176 ft 506 kts
2026-04-28 12:22 29.39368 113.54745 35176 ft 506 kts
2026-04-28 12:23 29.46396 113.55360 35176 ft 506 kts
2026-04-28 12:23 29.53410 113.55971 35176 ft 506 kts
2026-04-28 12:24 29.60367 113.56576 35176 ft 506 kts
2026-04-28 12:24 29.67251 113.57176 35176 ft 506 kts
2026-04-28 12:25 29.74211 113.57783 35176 ft 506 kts
2026-04-28 12:25 29.81226 113.58395 35176 ft 506 kts
2026-04-28 12:26 29.88222 113.59006 35176 ft 506 kts
2026-04-28 12:26 29.95152 113.60175 35176 ft 507 kts 16°
2026-04-28 12:27 30.01662 113.63117 35176 ft 507 kts 23°
2026-04-28 12:27 30.08118 113.66335 35176 ft 506 kts 23°
2026-04-28 12:28 30.14579 113.69563 35176 ft 506 kts 23°
2026-04-28 12:28 30.21019 113.72783 35176 ft 506 kts 23°
2026-04-28 12:29 30.30671 113.77617 35176 ft 506 kts 23°
2026-04-28 12:30 30.37093 113.80840 35176 ft 506 kts 23°
2026-04-28 12:30 30.43541 113.84080 35176 ft 506 kts 23°
2026-04-28 12:31 30.49971 113.87315 35176 ft 506 kts 23°
2026-04-28 12:31 30.56436 113.90572 35176 ft 506 kts 23°
2026-04-28 12:32 30.62841 113.93804 35176 ft 506 kts 23°
2026-04-28 12:32 30.69311 113.96952 35176 ft 506 kts 22°
2026-04-28 12:33 30.75707 114.00374 35176 ft 507 kts 26°
2026-04-28 12:33 30.82037 114.03903 35176 ft 506 kts 25°
2026-04-28 12:34 30.88400 114.07362 35176 ft 506 kts 25°
2026-04-28 12:34 30.94752 114.10812 35176 ft 506 kts 25°
2026-04-28 12:35 31.01097 114.14262 35176 ft 506 kts 25°
2026-04-28 12:35 31.07465 114.17725 35176 ft 506 kts 25°
2026-04-28 12:36 31.13849 114.21197 35176 ft 506 kts 25°
2026-04-28 12:36 31.20203 114.24660 35176 ft 506 kts 25°
2026-04-28 12:37 31.26539 114.28117 35176 ft 506 kts 25°
2026-04-28 12:37 31.32919 114.31506 35173 ft 506 kts 20°
2026-04-28 12:38 31.39787 114.33231 35172 ft 506 kts
2026-04-28 12:38 31.46792 114.33499 35176 ft 506 kts
2026-04-28 12:39 31.53837 114.33703 35176 ft 506 kts
2026-04-28 12:39 31.60806 114.33907 35176 ft 506 kts
2026-04-28 12:40 31.67828 114.34113 35176 ft 506 kts
2026-04-28 12:40 31.74863 114.34322 35176 ft 506 kts
2026-04-28 12:41 31.81904 114.34538 35176 ft 506 kts
2026-04-28 12:41 31.88882 114.34748 35176 ft 506 kts
2026-04-28 12:42 31.95898 114.34959 35176 ft 506 kts
2026-04-28 12:42 32.02932 114.35172 35176 ft 506 kts
2026-04-28 12:43 32.09969 114.35385 35176 ft 506 kts
2026-04-28 12:43 32.16945 114.35596 35176 ft 506 kts
2026-04-28 12:44 32.23965 114.35809 35176 ft 506 kts
2026-04-28 12:44 32.30996 114.36253 35177 ft 507 kts
2026-04-28 12:45 32.37952 114.36926 35176 ft 506 kts
2026-04-28 12:45 32.44964 114.37591 35176 ft 506 kts
2026-04-28 12:46 32.51982 114.38245 35176 ft 506 kts
2026-04-28 12:46 32.58969 114.38892 35176 ft 506 kts
2026-04-28 12:47 32.65969 114.39539 35176 ft 506 kts
2026-04-28 12:47 32.72968 114.40192 35176 ft 506 kts
2026-04-28 12:48 32.79938 114.40842 35176 ft 506 kts
2026-04-28 12:48 32.86946 114.41497 35176 ft 506 kts
2026-04-28 12:49 32.93914 114.42149 35176 ft 506 kts
2026-04-28 12:49 33.00928 114.42806 35176 ft 506 kts
2026-04-28 12:50 33.07916 114.43460 35176 ft 506 kts
2026-04-28 12:50 33.14897 114.44115 35176 ft 506 kts
2026-04-28 12:51 33.21905 114.44775 35176 ft 506 kts
2026-04-28 12:51 33.28862 114.45430 35176 ft 506 kts
2026-04-28 12:52 33.35896 114.46091 35176 ft 506 kts
2026-04-28 12:52 33.42884 114.46748 35176 ft 506 kts
2026-04-28 12:53 33.49896 114.47409 35176 ft 506 kts
2026-04-28 12:53 33.56878 114.48068 35176 ft 506 kts
2026-04-28 12:54 33.63873 114.48728 35176 ft 506 kts
2026-04-28 12:54 33.70848 114.49380 35176 ft 506 kts
2026-04-28 12:55 33.77872 114.50037 35176 ft 506 kts
2026-04-28 12:55 33.84851 114.50692 35176 ft 506 kts
2026-04-28 12:56 33.91827 114.51349 35176 ft 506 kts
2026-04-28 12:56 33.98865 114.52013 35176 ft 506 kts
2026-04-28 12:57 34.05833 114.52672 35176 ft 506 kts
2026-04-28 12:57 34.12857 114.53336 35176 ft 506 kts
2026-04-28 12:58 34.19839 114.53999 35176 ft 506 kts
2026-04-28 12:58 34.26829 114.54662 35176 ft 506 kts
2026-04-28 12:59 34.33808 114.55327 35176 ft 506 kts
2026-04-28 12:59 34.40842 114.55997 35176 ft 506 kts
2026-04-28 13:00 34.47803 114.56661 35176 ft 506 kts
2026-04-28 13:00 34.54792 114.57323 35176 ft 506 kts
2026-04-28 13:01 34.61835 114.57991 35176 ft 506 kts
2026-04-28 13:01 34.68801 114.58652 35176 ft 506 kts
2026-04-28 13:02 34.75793 114.59318 35176 ft 506 kts
2026-04-28 13:02 34.82804 114.59987 35176 ft 506 kts
2026-04-28 13:03 34.89775 114.60653 35176 ft 506 kts
2026-04-28 13:03 34.96778 114.61323 35176 ft 506 kts
2026-04-28 13:04 35.03762 114.61992 35176 ft 506 kts
2026-04-28 13:04 35.10801 114.62668 35176 ft 506 kts
2026-04-28 13:05 35.17793 114.63341 35176 ft 506 kts
2026-04-28 13:05 35.24788 114.64014 35176 ft 506 kts
2026-04-28 13:06 35.31757 114.64687 35176 ft 506 kts
2026-04-28 13:06 35.38782 114.65366 35176 ft 506 kts
2026-04-28 13:07 35.45754 114.66042 35176 ft 506 kts
2026-04-28 13:07 35.52772 114.66722 35176 ft 506 kts
2026-04-28 13:08 35.59763 114.67402 35176 ft 506 kts
2026-04-28 13:08 35.66734 114.68081 35176 ft 506 kts
2026-04-28 13:09 35.73765 114.68766 35176 ft 506 kts
2026-04-28 13:09 35.80764 114.69450 35176 ft 506 kts
2026-04-28 13:10 35.87719 114.70131 35176 ft 506 kts
2026-04-28 13:10 35.94717 114.70817 35176 ft 506 kts
2026-04-28 13:11 36.01750 114.71508 35176 ft 506 kts
2026-04-28 13:11 36.08710 114.72192 35176 ft 506 kts
2026-04-28 13:12 36.15751 114.72881 35176 ft 506 kts
2026-04-28 13:12 36.22731 114.73564 35176 ft 506 kts
2026-04-28 13:13 36.29726 114.74252 35176 ft 506 kts
2026-04-28 13:13 36.36665 114.75298 35173 ft 507 kts 14°
2026-04-28 13:14 36.43225 114.78380 35177 ft 507 kts 25°
2026-04-28 13:14 36.49589 114.82056 35176 ft 506 kts 25°
2026-04-28 13:15 36.55957 114.85748 35176 ft 506 kts 25°
2026-04-28 13:15 36.62312 114.89439 35176 ft 506 kts 25°
2026-04-28 13:16 36.68671 114.93137 35176 ft 506 kts 25°
2026-04-28 13:16 36.75032 114.96845 35176 ft 506 kts 25°
2026-04-28 13:17 36.81388 115.00554 35176 ft 506 kts 25°
2026-04-28 13:17 36.87748 115.04273 35176 ft 506 kts 25°
2026-04-28 13:18 36.94083 115.07984 35176 ft 506 kts 25°
2026-04-28 13:18 37.00430 115.11710 35176 ft 506 kts 25°
2026-04-28 13:19 37.06812 115.15462 35176 ft 506 kts 25°
2026-04-28 13:19 37.13163 115.19203 35176 ft 506 kts 25°
2026-04-28 13:20 37.19517 115.22954 35176 ft 506 kts 25°
2026-04-28 13:20 37.25840 115.26692 35176 ft 506 kts 25°
2026-04-28 13:21 37.32239 115.30482 35176 ft 506 kts 25°
2026-04-28 13:21 37.38582 115.34248 35176 ft 506 kts 25°
2026-04-28 13:22 37.44922 115.38018 35176 ft 506 kts 25°
2026-04-28 13:22 37.51285 115.41809 35176 ft 506 kts 25°
2026-04-28 13:23 37.57624 115.45592 35176 ft 506 kts 25°
2026-04-28 13:23 37.63975 115.49390 35176 ft 506 kts 25°
2026-04-28 13:24 37.70299 115.53179 35176 ft 506 kts 25°
2026-04-28 13:24 37.76675 115.56813 35173 ft 506 kts 19°
2026-04-28 13:25 37.83580 115.58482 35171 ft 506 kts
2026-04-28 13:25 37.90585 115.58141 35176 ft 507 kts 356°
2026-04-28 13:26 37.97562 115.57606 35176 ft 506 kts 356°
2026-04-28 13:26 38.04592 115.57073 35176 ft 506 kts 356°
2026-04-28 13:27 38.11597 115.56625 35177 ft 506 kts 358°
2026-04-28 13:27 38.18329 115.56192 35176 ft 506 kts 356°
2026-04-28 13:28 38.25388 115.56322 35177 ft 507 kts
2026-04-28 13:28 38.32097 115.58915 35178 ft 506 kts 24°
2026-04-28 13:29 38.38423 115.62840 35176 ft 506 kts 26°
2026-04-28 13:29 38.44723 115.66809 35176 ft 506 kts 26°
2026-04-28 13:30 38.51013 115.70779 35176 ft 506 kts 26°
2026-04-28 13:30 38.57305 115.74757 35176 ft 506 kts 26°
2026-04-28 13:31 38.66420 115.81356 35172 ft 506 kts 39°
2026-04-28 13:31 38.71357 115.87747 35176 ft 507 kts 48°
2026-04-28 13:32 38.76053 115.94447 35176 ft 506 kts 48°
2026-04-28 13:32 38.80730 116.01139 35176 ft 506 kts 48°
2026-04-28 13:33 38.85433 116.07883 35176 ft 506 kts 48°
2026-04-28 13:33 38.90086 116.14568 35176 ft 506 kts 48°
2026-04-28 13:34 38.94788 116.21340 35176 ft 506 kts 48°
2026-04-28 13:34 38.99440 116.28052 35176 ft 506 kts 48°
2026-04-28 13:35 39.04110 116.34806 35176 ft 506 kts 48°
2026-04-28 13:35 39.08753 116.41536 35176 ft 506 kts 48°
2026-04-28 13:36 39.13342 116.48201 35176 ft 506 kts 48°
2026-04-28 13:36 39.18229 116.54713 35171 ft 507 kts 39°
2026-04-28 13:37 39.24208 116.59333 35171 ft 506 kts 22°
2026-04-28 13:37 39.30812 116.62465 35176 ft 506 kts 19°
2026-04-28 13:38 39.37405 116.65514 35176 ft 506 kts 20°
2026-04-28 13:38 39.44004 116.68581 35176 ft 506 kts 20°
2026-04-28 13:39 39.50596 116.71657 35176 ft 506 kts 20°
2026-04-28 13:39 39.57237 116.74764 35176 ft 506 kts 20°
2026-04-28 13:40 39.63840 116.77862 35176 ft 506 kts 20°
2026-04-28 13:40 39.70413 116.80952 35176 ft 506 kts 20°
2026-04-28 13:41 39.77024 116.84067 35176 ft 506 kts 20°
2026-04-28 13:41 39.83585 116.87138 35176 ft 506 kts 19°
2026-04-28 13:42 39.90224 116.90198 35176 ft 506 kts 19°
2026-04-28 13:42 39.96857 116.93264 35176 ft 506 kts 19°
2026-04-28 13:43 40.03433 116.96311 35176 ft 506 kts 19°
2026-04-28 13:43 40.10051 116.99386 35176 ft 506 kts 19°
2026-04-28 13:44 40.16682 117.02473 35176 ft 506 kts 19°
2026-04-28 13:44 40.23304 117.05562 35176 ft 506 kts 19°
2026-04-28 13:45 40.29895 117.08644 35176 ft 506 kts 19°
2026-04-28 13:45 40.36484 117.11731 35176 ft 506 kts 19°
2026-04-28 13:46 40.43124 117.14849 35176 ft 506 kts 19°
2026-04-28 13:46 40.49742 117.17963 35176 ft 506 kts 19°
2026-04-28 13:47 40.56323 117.21066 35176 ft 506 kts 19°
2026-04-28 13:47 40.62937 117.24191 35176 ft 506 kts 19°
2026-04-28 13:48 40.69519 117.27308 35176 ft 506 kts 19°
2026-04-28 13:48 40.76136 117.30560 35176 ft 506 kts 21°
2026-04-28 13:49 40.82668 117.33898 35176 ft 506 kts 21°
2026-04-28 13:49 40.89198 117.37235 35176 ft 506 kts 21°
2026-04-28 13:50 40.95756 117.40590 35175 ft 506 kts 21°
2026-04-28 13:50 41.01852 117.45165 35174 ft 506 kts 38°
2026-04-28 13:51 41.06657 117.51853 35173 ft 506 kts 54°
2026-04-28 13:51 41.10452 117.59704 35176 ft 506 kts 57°
2026-04-28 13:52 41.14181 117.67631 35176 ft 506 kts 58°
2026-04-28 13:52 41.17896 117.75558 35176 ft 506 kts 58°
2026-04-28 13:53 41.21591 117.83465 35176 ft 506 kts 58°
2026-04-28 13:53 41.25277 117.91377 35176 ft 506 kts 58°
2026-04-28 13:54 41.28984 117.99354 35176 ft 506 kts 58°
2026-04-28 13:54 41.32655 118.07276 35176 ft 506 kts 58°
2026-04-28 13:55 41.36350 118.15272 35176 ft 506 kts 58°
2026-04-28 13:55 41.40010 118.23212 35176 ft 506 kts 58°
2026-04-28 13:56 41.43698 118.31234 35176 ft 506 kts 58°
2026-04-28 13:56 41.47355 118.39208 35176 ft 506 kts 58°
2026-04-28 13:57 41.51226 118.47020 35177 ft 507 kts 52°
2026-04-28 13:57 41.55547 118.54421 35176 ft 506 kts 51°
2026-04-28 13:58 41.59845 118.61785 35176 ft 506 kts 51°
2026-04-28 13:58 41.64178 118.69236 35176 ft 506 kts 52°
2026-04-28 13:59 41.68461 118.76624 35176 ft 506 kts 52°
2026-04-28 13:59 41.72745 118.84036 35176 ft 506 kts 52°
2026-04-28 14:00 41.77035 118.91476 35176 ft 506 kts 52°
2026-04-28 14:00 41.81327 118.98941 35176 ft 506 kts 52°
2026-04-28 14:01 41.85609 119.06406 35176 ft 506 kts 52°
2026-04-28 14:01 41.89886 119.13880 35176 ft 506 kts 52°
2026-04-28 14:02 41.94161 119.21371 35176 ft 506 kts 52°
2026-04-28 14:02 41.98431 119.28870 35176 ft 506 kts 52°
2026-04-28 14:03 42.02683 119.36357 35176 ft 506 kts 52°
2026-04-28 14:03 42.06936 119.43864 35176 ft 506 kts 52°
2026-04-28 14:04 42.11209 119.51427 35176 ft 506 kts 52°
2026-04-28 14:04 42.15443 119.58939 35176 ft 506 kts 52°
2026-04-28 14:05 42.19700 119.66510 35176 ft 506 kts 53°
2026-04-28 14:05 42.23922 119.74038 35176 ft 506 kts 53°
2026-04-28 14:06 42.28159 119.81612 35176 ft 506 kts 53°
2026-04-28 14:06 42.32383 119.89181 35176 ft 506 kts 53°
2026-04-28 14:07 42.36620 119.96793 35176 ft 506 kts 53°
2026-04-28 14:07 42.40837 120.04388 35176 ft 506 kts 53°
2026-04-28 14:08 42.45056 120.12008 35176 ft 506 kts 53°
2026-04-28 14:08 42.48554 120.18337 35176 ft 506 kts 53°
2026-04-28 14:09 42.53438 120.27199 35176 ft 506 kts 53°
2026-04-28 14:09 42.57645 120.34855 35176 ft 506 kts 53°
2026-04-28 14:10 42.61835 120.42497 35176 ft 506 kts 53°
2026-04-28 14:10 42.66034 120.50176 35176 ft 506 kts 53°
2026-04-28 14:11 42.70195 120.57806 35176 ft 506 kts 53°
2026-04-28 14:11 42.74376 120.65491 35176 ft 506 kts 53°
2026-04-28 14:12 42.78547 120.73179 35176 ft 506 kts 53°
2026-04-28 14:12 42.82568 120.80608 35176 ft 506 kts 53°
2026-04-28 14:13 42.86723 120.88306 35176 ft 506 kts 53°
2026-04-28 14:13 42.90868 120.96003 35176 ft 506 kts 53°
2026-04-28 14:14 42.95029 121.03750 35176 ft 506 kts 53°
2026-04-28 14:14 42.99191 121.11520 35176 ft 506 kts 53°
2026-04-28 14:15 43.03334 121.19276 35176 ft 506 kts 53°
2026-04-28 14:15 43.07454 121.27007 35176 ft 506 kts 53°
2026-04-28 14:16 43.11610 121.34826 35176 ft 506 kts 53°
2026-04-28 14:16 43.15742 121.42622 35176 ft 506 kts 53°
2026-04-28 14:17 43.19853 121.50398 35176 ft 506 kts 53°
2026-04-28 14:17 43.23962 121.58192 35176 ft 506 kts 53°
2026-04-28 14:18 43.28074 121.66011 35176 ft 506 kts 54°
2026-04-28 14:18 43.32168 121.73816 35176 ft 506 kts 54°
2026-04-28 14:19 43.36273 121.81663 35176 ft 506 kts 54°
2026-04-28 14:19 43.40359 121.89494 35176 ft 506 kts 54°
2026-04-28 14:20 43.44463 121.97381 35176 ft 506 kts 54°
2026-04-28 14:20 43.48532 122.05222 35176 ft 506 kts 54°
2026-04-28 14:21 43.52585 122.13144 35177 ft 506 kts 58°
2026-04-28 14:21 43.55417 122.21973 35174 ft 506 kts 75°
2026-04-28 14:22 43.56485 122.31519 35176 ft 507 kts 84°
2026-04-28 14:22 43.57132 122.41170 35176 ft 506 kts 84°
2026-04-28 14:23 43.57724 122.50775 35176 ft 506 kts 85°
2026-04-28 14:23 43.58288 122.60431 35176 ft 506 kts 85°
2026-04-28 14:24 43.58834 122.70122 35176 ft 506 kts 86°
2026-04-28 14:24 43.59364 122.79787 34792 ft 509 kts 86°
2026-04-28 14:25 43.59625 122.84648 34395 ft 509 kts 86°
2026-04-28 14:25 43.59885 122.89537 33994 ft 509 kts 86°
2026-04-28 14:25 43.60138 122.94331 33601 ft 508 kts 86°
2026-04-28 14:25 43.60390 122.99172 33148 ft 504 kts 86°
2026-04-28 14:26 43.60640 123.03986 32650 ft 500 kts 86°
2026-04-28 14:26 43.60884 123.08746 32154 ft 495 kts 86°
2026-04-28 14:26 43.61122 123.13453 31659 ft 491 kts 86°
2026-04-28 14:26 43.61355 123.18073 31169 ft 487 kts 86°
2026-04-28 14:27 43.61604 123.22709 30673 ft 483 kts 85°
2026-04-28 14:27 43.61904 123.27293 30178 ft 479 kts 84°
2026-04-28 14:27 43.62203 123.31812 29686 ft 476 kts 84°
2026-04-28 14:27 43.62501 123.36364 29185 ft 472 kts 84°
2026-04-28 14:28 43.62791 123.40838 28691 ft 469 kts 84°
2026-04-28 14:28 43.63077 123.45303 28194 ft 465 kts 84°
2026-04-28 14:28 43.63358 123.49715 27699 ft 461 kts 84°
2026-04-28 14:28 43.63632 123.54063 27208 ft 458 kts 84°
2026-04-28 14:29 43.63905 123.58433 26710 ft 455 kts 84°
2026-04-28 14:29 43.64172 123.62730 26217 ft 451 kts 84°
2026-04-28 14:29 43.64429 123.66892 25734 ft 448 kts 85°
2026-04-28 14:29 43.64685 123.71073 25248 ft 445 kts 85°
2026-04-28 14:30 43.64940 123.75259 24757 ft 441 kts 85°
2026-04-28 14:30 43.65191 123.79403 24267 ft 438 kts 85°
2026-04-28 14:30 43.65442 123.83579 23770 ft 435 kts 85°
2026-04-28 14:30 43.65689 123.87721 23274 ft 431 kts 85°
2026-04-28 14:31 43.65933 123.91819 22778 ft 428 kts 85°
2026-04-28 14:31 43.66172 123.95878 22283 ft 425 kts 85°
2026-04-28 14:31 43.66412 123.99956 21783 ft 422 kts 85°
2026-04-28 14:31 43.66646 124.03981 21285 ft 419 kts 85°
2026-04-28 14:32 43.66876 124.07945 20792 ft 416 kts 85°
2026-04-28 14:32 43.67105 124.11919 20294 ft 413 kts 85°
2026-04-28 14:32 43.67329 124.15839 19799 ft 410 kts 85°
2026-04-28 14:32 43.67549 124.19701 19308 ft 407 kts 85°
2026-04-28 14:33 43.67769 124.23602 18808 ft 404 kts 85°
2026-04-28 14:33 43.67820 124.27440 18310 ft 401 kts 94°
2026-04-28 14:33 43.67360 124.31204 17808 ft 398 kts 105°
2026-04-28 14:33 43.66447 124.34757 17313 ft 395 kts 112°
2026-04-28 14:34 43.64329 124.41688 16319 ft 389 kts 113°
2026-04-28 14:34 43.63280 124.45100 15821 ft 386 kts 111°
2026-04-28 14:34 43.62734 124.47456 15490 ft 385 kts 103°
2026-04-28 14:35 43.62327 124.52293 14825 ft 381 kts 89°
2026-04-28 14:35 43.62482 124.55920 14329 ft 378 kts 85°
2026-04-28 14:35 43.62687 124.59510 13835 ft 375 kts 85°
2026-04-28 14:35 43.62897 124.63104 13337 ft 373 kts 85°
2026-04-28 14:36 43.63103 124.66612 12847 ft 370 kts 85°
2026-04-28 14:36 43.63311 124.70139 12350 ft 367 kts 85°
2026-04-28 14:36 43.63518 124.73650 11852 ft 365 kts 85°
2026-04-28 14:36 43.63725 124.77129 11356 ft 362 kts 85°
2026-04-28 14:37 43.63929 124.80576 10861 ft 359 kts 85°
2026-04-28 14:37 43.64130 124.83978 10367 ft 357 kts 85°
2026-04-28 14:37 43.64329 124.87375 9871 ft 354 kts 85°
2026-04-28 14:37 43.64526 124.90733 9377 ft 352 kts 85°
2026-04-28 14:38 43.64719 124.94087 8880 ft 349 kts 85°
2026-04-28 14:38 43.64905 124.97430 8381 ft 347 kts 85°
2026-04-28 14:38 43.65086 125.00686 7891 ft 345 kts 85°
2026-04-28 14:38 43.65272 125.03972 7393 ft 342 kts 85°
2026-04-28 14:39 43.65457 125.07239 6981 ft 338 kts 85°
2026-04-28 14:39 43.65641 125.10501 6912 ft 339 kts 85°
2026-04-28 14:39 43.66055 125.13697 6905 ft 340 kts 70°
2026-04-28 14:39 43.67184 125.16513 6905 ft 340 kts 54°
2026-04-28 14:40 43.68653 125.19049 6907 ft 340 kts 50°
2026-04-28 14:40 43.69165 125.19878 6907 ft 340 kts 49°
2026-04-28 14:40 43.71759 125.24004 6907 ft 340 kts 49°
2026-04-28 14:40 43.73309 125.26459 6907 ft 340 kts 49°
2026-04-28 14:41 43.74857 125.28915 6907 ft 340 kts 49°
2026-04-28 14:41 43.76405 125.31372 6907 ft 340 kts 49°
2026-04-28 14:41 43.77950 125.33830 6907 ft 340 kts 49°
2026-04-28 14:41 43.79503 125.36300 6907 ft 340 kts 49°
2026-04-28 14:42 43.81039 125.38748 6907 ft 340 kts 49°
2026-04-28 14:42 43.82593 125.41224 6907 ft 340 kts 49°
2026-04-28 14:42 43.84151 125.43705 6907 ft 340 kts 49°
2026-04-28 14:42 43.85687 125.46156 6907 ft 340 kts 49°
2026-04-28 14:43 43.87237 125.48631 6908 ft 344 kts 49°
2026-04-28 14:43 43.88837 125.51183 7103 ft 361 kts 49°
2026-04-28 14:43 43.90461 125.53779 7272 ft 359 kts 49°
2026-04-28 14:43 43.92117 125.56429 7021 ft 369 kts 49°
2026-04-28 14:44 43.93756 125.59061 6908 ft 347 kts 49°
2026-04-28 14:44 43.95273 125.61500 6902 ft 319 kts 49°
2026-04-28 14:44 43.96413 125.63335 6902 ft 300 kts 49°
2026-04-28 14:45 43.98344 125.66445 6901 ft 270 kts 49°
2026-04-28 14:45 43.99496 125.68300 6904 ft 262 kts 49°
2026-04-28 14:45 44.01376 125.71326 6906 ft 257 kts 49°
2026-04-28 14:45 44.02536 125.73194 6907 ft 258 kts 49°
2026-04-28 14:46 44.03714 125.75092 6884 ft 259 kts 49°
2026-04-28 14:46 44.04904 125.77012 6422 ft 267 kts 49°
2026-04-28 14:46 44.06121 125.78975 5982 ft 268 kts 49°
2026-04-28 14:46 44.07158 125.80650 5911 ft 257 kts 49°
2026-04-28 14:47 44.08053 125.82097 5926 ft 255 kts 49°
2026-04-28 14:47 44.09200 125.83952 5907 ft 254 kts 49°
2026-04-28 14:47 44.10348 125.85809 5906 ft 254 kts 49°
2026-04-28 14:47 44.11506 125.87688 5905 ft 254 kts 50°
2026-04-28 14:48 44.12648 125.89565 5905 ft 254 kts 50°
2026-04-28 14:48 44.13785 125.91436 5905 ft 254 kts 50°
2026-04-28 14:48 44.14838 125.93420 5901 ft 254 kts 65°
2026-04-28 14:48 44.15199 125.95805 5896 ft 254 kts 93°
2026-04-28 14:49 44.14707 125.98116 5892 ft 243 kts 122°
2026-04-28 14:49 44.13583 125.99730 5892 ft 231 kts 148°
2026-04-28 14:49 44.12089 126.00472 5896 ft 228 kts 174°
2026-04-28 14:49 44.10532 126.00246 5896 ft 227 kts 200°
2026-04-28 14:50 44.09194 125.99113 5895 ft 227 kts 225°
2026-04-28 14:50 44.08250 125.97363 5905 ft 227 kts 237°
2026-04-28 14:50 44.07386 125.95493 5905 ft 227 kts 237°
2026-04-28 14:50 44.06535 125.93646 5905 ft 227 kts 237°
2026-04-28 14:51 44.05679 125.91788 5905 ft 227 kts 237°
2026-04-28 14:51 44.04835 125.89957 5905 ft 227 kts 237°
2026-04-28 14:51 44.03976 125.88094 5905 ft 227 kts 237°
2026-04-28 14:51 44.03126 125.86252 5905 ft 227 kts 237°
2026-04-28 14:52 44.02270 125.84399 5905 ft 227 kts 237°
2026-04-28 14:52 44.01419 125.82558 5905 ft 227 kts 237°
2026-04-28 14:52 44.00558 125.80696 5905 ft 227 kts 237°
2026-04-28 14:52 43.99710 125.78864 5905 ft 227 kts 237°
2026-04-28 14:53 43.98857 125.77022 5905 ft 227 kts 237°
2026-04-28 14:53 43.97987 125.75144 5905 ft 227 kts 237°
2026-04-28 14:53 43.97133 125.73301 5905 ft 227 kts 237°
2026-04-28 14:53 43.96285 125.71473 5905 ft 227 kts 237°
2026-04-28 14:54 43.95423 125.69617 5905 ft 227 kts 237°
2026-04-28 14:54 43.94565 125.67770 5905 ft 227 kts 237°
2026-04-28 14:54 43.93708 125.65925 5905 ft 227 kts 237°
2026-04-28 14:54 43.92840 125.64060 5905 ft 227 kts 237°
2026-04-28 14:55 43.91996 125.62245 5905 ft 227 kts 237°
2026-04-28 14:55 43.91129 125.60385 5905 ft 227 kts 237°
2026-04-28 14:55 43.90273 125.58547 5905 ft 227 kts 237°
2026-04-28 14:55 43.89417 125.56712 5905 ft 227 kts 237°
2026-04-28 14:56 43.88558 125.54871 5905 ft 227 kts 237°
2026-04-28 14:56 43.87698 125.53030 5905 ft 227 kts 237°
2026-04-28 14:56 43.86835 125.51182 5905 ft 227 kts 237°
2026-04-28 14:56 43.85981 125.49356 5905 ft 227 kts 237°
2026-04-28 14:57 43.85117 125.47509 5905 ft 227 kts 237°
2026-04-28 14:57 43.84546 125.46288 5905 ft 227 kts 237°
2026-04-28 14:57 43.83437 125.43922 5902 ft 215 kts 237°
2026-04-28 14:57 43.82644 125.42228 5914 ft 207 kts 237°
2026-04-28 14:58 43.81980 125.40465 5529 ft 210 kts 255°
2026-04-28 14:58 43.82061 125.38496 5022 ft 207 kts 290°
2026-04-28 14:58 43.82918 125.36962 4510 ft 205 kts 324°
2026-04-28 14:58 43.84247 125.36372 4070 ft 199 kts
2026-04-28 14:59 43.85532 125.36944 3998 ft 200 kts 34°
2026-04-28 14:59 43.86390 125.38435 3989 ft 201 kts 68°
2026-04-28 14:59 43.86546 125.40339 3997 ft 201 kts 92°
2026-04-28 14:59 43.86460 125.42255 4003 ft 201 kts 94°
2026-04-28 15:00 43.86362 125.44211 4004 ft 201 kts 94°
2026-04-28 15:00 43.86323 125.46125 4007 ft 201 kts 82°
2026-04-28 15:00 43.86725 125.47575 4004 ft 201 kts 60°
2026-04-28 15:00 43.87558 125.49130 4003 ft 201 kts 51°
2026-04-28 15:01 43.88466 125.50600 4004 ft 201 kts 49°
2026-04-28 15:01 43.89386 125.52064 3846 ft 203 kts 49°
2026-04-28 15:01 43.90308 125.53534 3213 ft 207 kts 49°
2026-04-28 15:01 43.91225 125.55024 2824 ft 192 kts 50°
2026-04-28 15:02 43.92068 125.56392 2607 ft 182 kts 49°
2026-04-28 15:02 43.92870 125.57662 2401 ft 169 kts 49°
2026-04-28 15:02 43.93613 125.58847 2217 ft 150 kts 49°
2026-04-28 15:02 43.94271 125.59901 2042 ft 140 kts 49°
2026-04-28 15:03 43.94895 125.60903 1871 ft 135 kts 49°
2026-04-28 15:03 43.95506 125.61884 1700 ft 134 kts 49°
2026-04-28 15:03 43.96114 125.62860 1525 ft 133 kts 49°
2026-04-28 15:03 43.96720 125.63834 1348 ft 132 kts 49°
2026-04-28 15:04 43.97300 125.64768 1176 ft 132 kts 49°
2026-04-28 15:04 43.97886 125.65709 1004 ft 131 kts 49°
2026-04-28 15:04 43.98472 125.66653 831 ft 131 kts 49°
2026-04-28 15:04 43.99028 125.67554 722 ft 120 kts 50°
2026-04-28 15:05 43.99480 125.68289 721 ft 75 kts 50°
2026-04-28 15:05 43.99722 125.68677 721 ft 31 kts 49°
2026-04-28 15:05 43.99781 125.68771 721 ft 6 kts 49°
2026-04-28 15:05 43.99842 125.68866 721 ft 19 kts 49°
2026-04-28 15:06 43.99925 125.69039 721 ft 22 kts 65°
2026-04-28 15:06 43.99959 125.69251 721 ft 23 kts 81°
2026-04-28 15:06 43.99917 125.69460 721 ft 21 kts 132°
2026-04-28 15:06 43.99827 125.69478 721 ft 14 kts 201°
2026-04-28 15:07 43.99766 125.69415 721 ft 5 kts 224°
2026-04-28 15:07 43.99734 125.69368 721 ft 8 kts 228°
2026-04-28 15:07 43.99689 125.69299 721 ft 10 kts 228°
2026-04-28 15:07 43.99636 125.69217 721 ft 9 kts 211°
2026-04-28 15:08 43.99595 125.69241 721 ft 7 kts 141°
2026-04-28 15:08 43.99582 125.69257 721 ft 3 kts 141°
2026-04-28 15:08 43.99574 125.69266 721 ft 0 kts 141°